Back to catalog

DELTA 1 DEB

AliveSSO
NORAD 7149·DEBRIS·🇺🇸 United States

Launched Nov 6, 1973 from Vandenberg Space Force Base

Loading…

Next Passes (next 24 hours)

TLE

FreshSource: Space-Track

Epoch: Sep 14, 2026, 13:21 UTC

1 07149U 73086DP  26257.55658748  .00000343  00000-0  28526-2 0  9990
2 07149 102.1219  11.7821 0053535 203.2862 223.8516 12.41220464386126

Track DELTA 1 DEB in real time with AllMySat

Download on the App Store